Location: Home
(42.5358°N, 72.7383°W)
Time: 17:11:17
(UTC-05:00)

Tiros 1 - Pass Details

Date: 30 November 2021
Orbit: 629 x 664 km, 48.4° (Epoch: 18 January)

Event Time Altitude Azimuth Distance (km) Brightness Sun altitude
Rises 02:42:16 0° 290° (WNW) 2,978 - -46.8°
Reaches altitude 10° 02:44:57 10° 276° (W) 2,068 - -46.3°
Maximum altitude 02:48:45 24° 224° (SW) 1,366 - -45.6°
Drops below altitude 10° 02:52:33 10° 171° (S) 2,069 - -44.9°
Sets 02:55:16 0° 157° (SSE) 2,980 - -44.4°
